sat.trackr.live / text

‹ back to catalog

STARLINK-36171

NORAD 67027 · 2025-293AA

PAYLOAD ACTIVE UNKNOWN

§ Identity

Operator
Country
US
Launch date
2025-12-10
Launch site
AFWTR
Launch vehicle
Mass (kg)
RCS (m²)

Purposes: comms

External: N2YO · Heavens-Above · Gunter

§ Orbital elements

Epoch: 2026-09-20T21:49:49.622304Z

Period
96.11 min
Inclination
70.0011°
Eccentricity
0.0003911
Mean motion
14.98334693 rev/d
Perigee alt
569.3 km
Apogee alt
574.8 km
Semi-major
6,950.2 km
B*
2.3873e-4
RAAN
322.0859°
Arg perigee
271.5201°
Mean anomaly
88.5510°
Rev number
4,413

§ Raw data

STARLINK-361711 67027U 25293AA  26263.90960211  .00002757  00000+0  23873-3 0  99962 67027  70.0011 322.0859 0003911 271.5201  88.5510 14.98334693 44133

JSON: /api/v1/satellites/67027 · /tle

For live sub-satellite position, see the globe view (requires WebGL).

§ Visibility from observer

Set your observer location to see the next 7 days of passes ≥ 10°. The values pass through the URL so the page stays shareable.

No JS? Fill the form by hand. The geolocation button needs JavaScript.